User: anonymous   Login
Location: Unspecified
(0.0000°N, 0.0000°E)
Time: 01:44:44
(UTC+00:00)
Language:

KH 9-19 ELINT - Orbit

View from above orbital plane
View from above orbital plane
View from above satellite
View from above satellite

Ground track
Ground track

The orbit data is extracted from the following two-line orbital elements,

1 15071U 84065C   16270.16107941 0.00001150  00000-0  11302-3 0    02
2 15071  95.8966 234.4877 0002996 113.4641 246.5357 14.92225134    05
Epoch (UTC): 26 September 2016 03:51:57
Eccentricity: 0.0002996
inclination: 95.8966°
perigee height: 589 km
apogee height: 593 km
right ascension of ascending node: 234.4877°
argument of perigee: 113.4641°
revolutions per day: 14.92225134
mean anomaly at epoch: 246.5357°
orbit number at epoch: 0

The dashed part of the orbit path shows where the satellite is in the earth's shadow,  

DLR